Terminal Aerodrome Forecast
Issued by NWS

Home | Current Version | Previous Version | Text Only | Print | Product List | Glossary On
Versions: 1 2 3 4 5 6 7 8 9 10 11 12 13 14 15 16 17 18 19 20 21 22 23 24 25 26 27 28 29 30 31 32 33 34 35 36 37 38 39 40 41 42 43 44
000
FTUS43 KDMX 172001 AAB
TAFMCW
TAF AMD
KMCW 172001Z 1720/1818 28011KT P6SM SCT014 BKN022
     FM172100 27010KT P6SM SCT035 BKN100
     FM180600 VRB05KT P6SM SCT150
     FM181300 15013G19KT P6SM BKN220
     FM181500 16018G29KT P6SM BKN210 WS020/19045KT=

USA.gov is the U.S. government's official web portal to all federal, state and local government web resources and services.